• MPC Preparation (Info)

  • MPEC 2019-G132: 2019 GO5

    The following Minor Planet Electronic Circular may be linked-to from your own Web pages, but must not otherwise be redistributed electronically.

    A form allowing access to any MPEC is at the bottom of this page.


    Read MPEC 2019-G131 Read MPEC 2019-G133


    M.P.E.C. 2019-G132                               Issued 2019 Apr.  9, 21:37 UT
    
         The Minor Planet Electronic Circulars contain information on unusual
             minor planets and routine data on comets.  They are published
        on behalf of Division F of the International Astronomical Union by the
              Minor Planet Center, Smithsonian Astrophysical Observatory,
                              Cambridge, MA 02138, U.S.A.
    
                 Prepared using the Tamkin Foundation Computer Network
    
                                  MPC@CFA.HARVARD.EDU
                URL https://www.minorplanetcenter.net/    ISSN 1523-6714
    
                                       2019 GO5
    
    Observations:
         K19G05O  C2019 04 03.24726910 30 10.657+19 29 04.14         21.5 GVEG132F51
         K19G05O  C2019 04 03.26020710 30 09.682+19 28 26.49         21.6 GVEG132F51
         K19G05O  C2019 04 03.27318110 30 08.714+19 27 48.50         22.2 GVEG132F51
         K19G05O  C2019 04 03.28617010 30 07.712+19 27 10.81         21.9 GVEG132F51
         K19G05O* C2019 04 07.24759 10 26 34.927+16 03 48.66         21.9 wUEG132F51
         K19G05O  C2019 04 07.25796 10 26 34.326+16 03 15.63         21.7 wUEG132F51
         K19G05O  C2019 04 07.26830 10 26 33.705+16 02 42.72         22.6 wUEG132F51
         K19G05O  C2019 04 07.27869 10 26 33.092+16 02 09.70         22.2 wUEG132F51
         K19G05O KC2019 04 09.23850 10 25 12.30 +14 15 29.2                oEG132291
         K19G05O KC2019 04 09.25306 10 25 11.62 +14 14 42.2          22.0 RoEG132291
         K19G05O KC2019 04 09.26763 10 25 10.94 +14 13 53.7          22.0 RoEG132291
    
    Observer details:
    291 LPL/Spacewatch II.  Observer T. H. Bressi.  1.8-m f/2.7 reflector + CCD.
    F51 Pan-STARRS 1, Haleakala.  Observers J. Bulger, K. Chambers, T. Lowe,
        E. Magnier, A. Schultz, M. Willman.  Measurers S. Chastel, M. Huber,
        Y. Ramanjooloo, R. Wainscoat, R. Weryk, K. Chambers, T. de Boer,
        L. Denneau, J. Fairlamb, H. Flewelling, C.-C. Lin, E. Magnier.  1.8-m
        Ritchey-Chretien + CCD.
    
    Orbital elements:
    2019 GO5                                                 Earth MOID = 0.1550 AU
    Epoch 2019 Apr. 27.0 TT = JDT 2458600.5                 MPC
    M 356.63668              (2000.0)            P               Q
    n   0.39760921     Peri.  200.22351     -0.82374318     +0.56464755
    a   1.8316047      Node    14.49954     -0.48800794     -0.66017327
    e   0.3730056      Incl.   11.79741     -0.28860947     -0.49532252
    P   2.48           H   23.3           G   0.15           U   7
    Residuals in seconds of arc
    190403 F51  0.1-  0.0     190407 F51  0.0   0.0     190409 291  0.5-  1.0-
    190403 F51  0.1-  0.0     190407 F51  0.1+  0.0     190409 291  0.0   0.5+
    190403 F51  0.2+  0.2-    190407 F51  0.1-  0.0     190409 291  0.5+  0.5+
    190403 F51  0.0   0.1+    190407 F51  0.0   0.0
    
    Ephemeris:
    2019 GO5                 a,e,i = 1.83, 0.37, 12                  q = 1.1484
    Date    TT    R. A. (2000) Decl.     Delta      r     Elong.  Phase     V
    2019 03 10    11 07 31.3 +32 29 52   0.3041  1.2691   151.8    21.7    22.3
    ...
    2019 03 25    10 42 18.3 +26 07 12   0.2578  1.2164   144.6    28.3    22.0
    ...
    2019 04 02    10 31 30.3 +20 29 25   0.2428  1.1935   139.1    33.2    22.0
    ...
    2019 04 08    10 26 01.1 +15 23 28   0.2359  1.1792   134.8    37.1    22.0
    2019 04 09    10 25 21.7 +14 28 53   0.2351  1.1770   134.0    37.7    22.0
    2019 04 10    10 24 46.8 +13 33 26   0.2344  1.1749   133.3    38.3    22.0
    ...
    2019 04 16    10 22 55.7 +07 45 36   0.2322  1.1640   129.2    41.9    22.1
    ...
    2019 04 24    10 24 44.7 -00 21 10   0.2344  1.1539   124.3    46.1    22.2
    ...
    2019 05 09    10 40 41.2 -15 12 08   0.2532  1.1489   117.6    51.1    22.5
    
    A. U. Tomatic                (C) Copyright 2019 MPC           M.P.E.C. 2019-G132
    

    Read MPEC 2019-G131 Read MPEC 2019-G133


    MPEC number:

    Enter an MPEC number in one of the following forms:

    • 1997-B01 (the full form)
    • J97B01 (the packed version of the full form)
    • B01 (the abbreviated form)